GOES 12 [-]

Last updated on Nov. 20, 2019, 4:19 a.m. UTC

1 26871U 01031A   19323.12046434 -.00000249  00000-0  00000+0 0  9996
2 26871   7.8708  54.0748 0008805 252.7019 118.8339  0.99139691 66924
UTC
Height (km)
Latitude
Longitude
Inclination
Orbital Period
UTC large
Height (km)
Speed (km/s)
/
Latitude / Longitude
Inclination (degrees)
Orbital Period (minutes)
Azimuth
Elevation
Range (km)
Doppler Factor
iOS Compass Heading
iOS Angle

Next 30 passes for location: Hong Kong

Rise time Rise Azimuth (degrees) Set time Set Azimuth (degrees) Duration Max altitude (degrees)

No matching passes for this satellites